#timestamp,LO_Frequency,Hit,StdDev 
1621573215.1,286046997.8,N
1621573216.0,286046997.8,N
1621573235.8,286046995.9,N
1621573255.6,286046997.9,N
1621573275.5,286046999.1,N
1621573295.3,286046999.2,N
1621573315.2,286047000.9,N
1621573335.9,286047000.5,N
1621573355.7,286046998.1,N
1621573375.6,286046998.4,N
1621573395.4,286046998.3,N
1621573415.3,286046999.3,N
1621573435.1,286046999.4,N
1621573436.0,286046999.4,N
1621573455.8,286046999.0,N
1621573475.7,286047001.1,N
1621573495.5,286046998.2,N
1621573515.4,286046996.7,N
1621573535.2,286046998.0,N
1621573555.0,286046997.6,N
1621573555.9,286046997.6,N
1621573575.8,286046997.6,N
1621573595.6,286047000.8,N
1621573615.4,286047002.7,N
1621573635.3,286047000.7,N
1621573655.1,286046996.5,N
1621573675.9,286046999.9,N
1621573695.7,286047000.1,N
1621573715.5,286046999.7,N
1621573735.4,286047002.4,N
1621573755.2,286047002.5,N
1621573775.1,286047002.3,N
1621573776.0,286047002.3,N
1621573795.8,286047000.7,N
1621573815.6,286046998.1,N
1621573835.5,286047002.8,N
1621573855.3,286047001.9,N
1621573875.1,286047003.6,N
1621573895.9,286047003.5,N
1621573915.7,286047003.7,N
1621573935.6,286047003.4,N
1621573955.4,286047004.4,N
1621573975.2,286047002.7,N
1621573995.1,286047003.7,N
1621573996.0,286047003.7,N
1621574015.8,286047003.3,N
1621574035.6,286046999.7,N
1621574055.5,286047000.0,N
1621574075.3,286047001.4,N
1621574095.2,286047001.9,N
1621574115.9,286047002.5,N
1621574135.7,286047001.9,N
1621574155.6,286047001.8,N
1621574175.4,286047004.1,N
1621574195.2,286047002.9,N
1621574215.1,286047006.0,Y
1621574216.0,286047006.0,P
1621574235.8,286047003.8,N
1621574255.7,286047003.0,N
1621574275.5,286047004.1,N
1621574295.3,286047002.9,N
1621574315.2,286047004.1,Y
1621574335.0,286046995.8,P
1621574335.9,286046995.8,N
1621574355.8,286046994.1,N
1621574375.6,286046996.2,N
1621574395.4,286046995.5,N
1621574415.3,286046995.1,N
1621574435.1,286046997.6,N
1621574455.8,286046997.1,N
1621574475.7,286046997.1,N
1621574495.5,286046997.2,N
1621574515.4,286046999.5,N
1621574535.2,286046995.0,N
1621574555.0,286046995.1,N
1621574555.9,286046995.1,N
1621574575.8,286046998.6,N
1621574595.6,286046995.1,N
1621574615.4,286047000.4,N
1621574635.3,286046997.3,N
1621574655.1,286046994.9,N
1621574675.9,286046995.9,N
1621574695.7,286046993.5,N
1621574715.5,286046992.3,Y
1621574735.4,286046996.4,P
1621574755.2,286046995.3,P
1621574775.0,286046999.4,N
1621574775.9,286046999.4,N
1621574795.8,286047002.2,N
1621574815.6,286047001.6,N
1621574835.5,286047002.2,N
1621574855.3,286046999.8,N
1621574875.1,286047001.7,N
1621574895.9,286047004.3,N
1621574915.7,286047001.6,N
1621574935.5,286047000.5,N
1621574955.4,286047001.1,N
1621574975.2,286047000.5,N
1621574995.1,286046999.0,N
1621574996.0,286046999.0,N
1621575015.8,286047000.8,N
1621575035.6,286047000.0,N
1621575055.5,286047002.1,N
1621575075.3,286047004.3,N
1621575095.2,286047002.7,N
1621575115.9,286047002.2,N
1621575135.7,286047003.9,N
1621575155.6,286047005.6,N
1621575175.4,286047004.2,N
1621575195.2,286047002.1,N
1621575215.1,286047000.9,N
1621575216.0,286047000.9,N
1621575235.8,286046999.8,N
1621575255.7,286047000.7,N
1621575275.5,286046998.3,N
1621575295.3,286046998.7,N
1621575315.2,286046998.2,N
1621575335.0,286046998.8,N
1621575335.9,286046998.8,N
1621575355.8,286046998.1,N
1621575375.6,286046999.9,N
1621575395.4,286047000.8,N
1621575415.3,286047002.1,N
1621575435.1,286047002.1,N
1621575455.9,286047004.1,N
1621575475.7,286047002.5,N
1621575495.5,286047002.5,N
1621575515.4,286047000.6,N
1621575535.2,286046999.7,N
1621575555.0,286047002.1,N
1621575555.9,286047002.1,N
1621575575.8,286046999.3,N
1621575595.6,286047001.2,N
1621575615.5,286047000.9,N
1621575635.3,286047002.7,N
1621575655.1,286047002.7,N
1621575675.9,286047001.8,N
1621575695.7,286047001.4,N
1621575715.5,286046999.7,N
1621575735.4,286047001.7,N
1621575755.2,286047004.2,N
1621575775.1,286047004.4,N
1621575776.0,286047004.4,N
1621575795.8,286047004.0,N
1621575815.6,286046999.8,N
1621575835.5,286047002.4,N
1621575855.3,286047002.8,N
1621575875.1,286047000.8,N
1621575895.9,286047002.4,N
1621575915.7,286047001.7,N
1621575935.6,286047002.3,N
1621575955.4,286047000.1,N
1621575975.2,286046999.7,N
1621575995.1,286047000.3,N
1621575996.0,286047000.3,N
1621576015.8,286047000.9,N
1621576035.7,286047000.4,N
1621576055.5,286047004.4,Y
1621576075.3,286047000.8,P
1621576095.2,286047000.1,N
1621576115.0,286047001.6,N
1621576115.9,286047001.6,N
1621576135.7,286047004.4,Y
1621576155.6,286047000.0,P
1621576175.4,286046999.9,N
1621576195.3,286047001.4,N
1621576215.1,286047002.6,Y
1621576235.8,286047002.2,P
1621576255.7,286047002.5,P
1621576275.5,286047002.4,N
1621576295.3,286047001.7,N
1621576315.2,286047002.4,Y
1621576335.0,286046998.1,P
1621576335.9,286046998.1,N
1621576355.8,286047001.1,N
1621576375.6,286046997.3,N
1621576395.4,286046999.5,N
1621576415.3,286046999.0,N
1621576435.1,286046999.5,N
1621576485.9,286046996.6,E
1621576495.8,286046999.4,N
1621576515.6,286046998.5,P
1621576535.5,286047002.4,P
1621576555.3,286047002.6,N
1621576575.1,286046998.3,N
1621576595.9,286046998.8,N
1621576615.7,286046999.9,N
1621576635.6,286047002.3,N
1621576655.4,286047004.3,N
1621576675.2,286047002.5,N
1621576695.1,286046998.2,N
1621576696.0,286046998.2,N
1621576715.8,286046997.0,N
1621576735.6,286046999.3,N
1621576755.5,286047001.0,N
1621576775.3,286047000.4,N
1621576795.2,286047001.2,N
